Weather History for KLFI - February, 2012

Change the Weather History Date:

Friday, February 17, 2012

  Actual Average Record
Temperature  
Mean Temperature 45 °F -  
Max Temperature 53 °F 48 °F 79 °F (1976)
Min Temperature 37 °F 34 °F 10 °F (1958)
Degree Days  
Heating Degree Days 20    
Moisture  
Dew Point 43 °F    
Average Humidity 96    
Maximum Humidity 100    
Minimum Humidity 71    
Precipitation  
Precipitation 0.00 in - - ()
Sea Level Pressure  
Sea Level Pressure 30.06 in    
Wind  
Wind Speed 6 mph (NNW)    
Max Wind Speed 14 mph    
Max Gust Speed 22 mph    
Visibility 5 miles    
Events Fog    
Averages and records for this station are not official NWS values.
T = Trace of Precipitation, MM = Missing Value Source: NWS Daily Summary

Daily Weather History Graph

Daily Weather History Graph

Search for Another Location

Airport or City:

Trip Planner

Search our weather history database for the weather conditions in past years. The results will help you decide how hot, cold, wet, or windy it might be!

Date:

Astronomy

Feb. 17, 2012 Rise Set
Actual Time 6:52 AM EST 5:47 PM EST
Civil Twilight 6:25 AM EST 6:13 PM EST
Nautical Twilight 5:55 AM EST 6:43 PM EST
Astronomical Twilight 5:25 AM EST 7:14 PM EST
Moon 3:37 AM EST (2/17) 1:41 PM EST (2/17)
Length of Visible Light 11h 47m
Length of Day
10h 54m
Waning Crescent, 19% of the Moon is Illuminated
Feb 17
Waning Crescent
Feb 21
New
Feb 29
First Quarter
Mar 8
Full
Mar 14
Last Quarter

Hourly Weather History & Observations

Time (EST) Temp. Windchill Dew Point Humidity Pressure Visibility Wind Dir Wind Speed Gust Speed Precip Events Conditions
12:20 AM 46.4 °F 42.4 °F 46.4 °F 100% 30.01 in 0.5 mi NNW 8.1 mph - N/A Fog Fog
12:55 AM 45.9 °F 44.6 °F 45.9 °F 100% 30.01 in 0.5 mi NNW 3.5 mph - N/A Fog Fog
1:17 AM 46.4 °F 43.5 °F 46.4 °F 100% 30.00 in 0.8 mi North 5.8 mph - N/A   Overcast
1:37 AM 44.6 °F 41.4 °F 44.6 °F 100% 29.99 in 0.8 mi NNW 5.8 mph - N/A   Overcast
1:40 AM 44.6 °F 40.7 °F 44.6 °F 100% 29.99 in 0.8 mi NNW 6.9 mph - N/A   Overcast
1:41 AM 44.6 °F 41.4 °F 44.6 °F 100% 29.99 in 1.0 mi NNW 5.8 mph - N/A   Overcast
1:55 AM 45.1 °F 41.4 °F 45.1 °F 100% 29.99 in 2.0 mi NNW 6.9 mph - N/A   Overcast
1:56 AM 44.6 °F 40.7 °F 44.6 °F 100% 30.00 in 3.0 mi NW 6.9 mph - N/A   Overcast
2:01 AM 44.6 °F 40.2 °F 44.6 °F 100% 30.01 in 4.0 mi WNW 8.1 mph - N/A   Overcast
2:09 AM 44.6 °F 40.2 °F 44.6 °F 100% 29.99 in 6.0 mi NNW 8.1 mph - N/A   Overcast
2:23 AM 44.6 °F 40.7 °F 44.6 °F 100% 30.01 in 2.5 mi NW 6.9 mph - N/A   Overcast
2:27 AM 44.6 °F 41.4 °F 44.6 °F 100% 30.01 in 2.5 mi NW 5.8 mph - N/A   Overcast
2:37 AM 44.6 °F 41.4 °F 44.6 °F 100% 30.00 in 3.0 mi NNW 5.8 mph - N/A   Overcast
2:39 AM 44.6 °F 40.7 °F 44.6 °F 100% 30.00 in 3.0 mi NW 6.9 mph - N/A   Overcast
2:43 AM 44.6 °F 40.2 °F 44.6 °F 100% 30.00 in 4.0 mi NW 8.1 mph - N/A   Overcast
2:55 AM 44.1 °F 38.6 °F 44.1 °F 100% 30.01 in 4.0 mi NNW 10.4 mph - N/A   Overcast
3:13 AM 44.6 °F 42.2 °F 44.6 °F 100% 30.02 in 4.0 mi NNW 4.6 mph - N/A   Overcast
3:18 AM 44.6 °F 41.4 °F 44.6 °F 100% 30.02 in 5.0 mi NNW 5.8 mph - N/A   Overcast
3:36 AM 44.6 °F 40.7 °F 44.6 °F 100% 30.03 in 7.0 mi Variable 6.9 mph - N/A   Overcast
3:47 AM 44.6 °F 40.7 °F 44.6 °F 100% 30.04 in 10.0 mi NNW 6.9 mph - N/A   Overcast
3:55 AM 43.7 °F 42.1 °F 43.7 °F 100% 30.04 in 9.0 mi WNW 3.5 mph - N/A   Overcast
4:15 AM 44.6 °F 40.7 °F 44.6 °F 100% 30.03 in 6.0 mi NW 6.9 mph - N/A   Overcast
4:42 AM 44.6 °F 40.7 °F 44.6 °F 100% 30.02 in 5.0 mi NNW 6.9 mph - N/A   Overcast
4:55 AM 43.5 °F 40.9 °F 43.5 °F 100% 30.02 in 4.0 mi NNW 4.6 mph - N/A   Overcast
5:03 AM 42.8 °F - 42.8 °F 100% 30.03 in 2.5 mi Calm Calm - N/A   Overcast
5:13 AM 42.8 °F 40.1 °F 42.8 °F 100% 30.03 in 2.0 mi NW 4.6 mph - N/A   Overcast
5:26 AM 42.8 °F 40.1 °F 42.8 °F 100% 30.04 in 2.5 mi WNW 4.6 mph - N/A   Overcast
5:39 AM 42.8 °F 39.3 °F 42.8 °F 100% 30.04 in 1.2 mi West 5.8 mph - N/A   Overcast
5:55 AM 42.6 °F 39.0 °F 42.6 °F 100% 30.04 in 1.2 mi West 5.8 mph - N/A   Overcast
6:04 AM 42.8 °F 40.1 °F 42.8 °F 100% 30.05 in 2.5 mi NW 4.6 mph - N/A   Overcast
6:07 AM 42.8 °F 41.1 °F 42.8 °F 100% 30.05 in 3.0 mi NW 3.5 mph - N/A   Overcast
6:25 AM 42.8 °F 41.1 °F 42.8 °F 100% 30.05 in 1.0 mi WNW 3.5 mph - N/A   Overcast
6:28 AM 42.8 °F 40.1 °F 42.8 °F 100% 30.05 in 0.8 mi WNW 4.6 mph - N/A   Overcast
6:30 AM 42.8 °F 41.1 °F 42.8 °F 100% 30.05 in 0.8 mi NW 3.5 mph - N/A   Overcast
6:33 AM 42.8 °F 40.1 °F 42.8 °F 100% 30.06 in 1.0 mi NW 4.6 mph - N/A   Overcast
6:36 AM 42.8 °F 39.3 °F 42.8 °F 100% 30.06 in 1.2 mi NW 5.8 mph - N/A   Overcast
6:41 AM 42.8 °F 38.6 °F 42.8 °F 100% 30.06 in 1.8 mi NNW 6.9 mph - N/A   Overcast
6:55 AM 42.4 °F 39.6 °F 42.4 °F 100% 30.06 in 0.8 mi NW 4.6 mph - N/A   Overcast
7:13 AM 42.8 °F 39.3 °F 42.8 °F 100% 30.06 in 0.8 mi NW 5.8 mph - N/A   Overcast
7:17 AM 42.8 °F 39.3 °F 42.8 °F 100% 30.06 in 0.5 mi NW 5.8 mph - N/A Fog Fog
7:25 AM 42.8 °F 39.3 °F 42.8 °F 100% 30.06 in 0.2 mi NW 5.8 mph - N/A Fog Fog
7:27 AM 42.8 °F 38.6 °F 42.8 °F 100% 30.06 in 0.2 mi WNW 6.9 mph - N/A Fog Fog
7:34 AM 42.8 °F 38.6 °F 42.8 °F 100% 30.06 in 0.2 mi WNW 6.9 mph - N/A Fog Fog
7:36 AM 42.8 °F 38.0 °F 42.8 °F 100% 30.06 in 0.5 mi WNW 8.1 mph - N/A Fog Fog
7:42 AM 42.8 °F 39.3 °F 42.8 °F 100% 30.06 in 0.5 mi Variable 5.8 mph - N/A Fog Fog
7:43 AM 42.8 °F 39.3 °F 42.8 °F 100% 30.06 in 0.8 mi Variable 5.8 mph - N/A   Overcast
7:55 AM 42.3 °F 37.9 °F 42.3 °F 100% 30.06 in 1.2 mi NW 6.9 mph - N/A   Overcast
7:58 AM 42.8 °F 38.6 °F 42.8 °F 100% 30.07 in 1.0 mi NW 6.9 mph - N/A   Overcast
8:07 AM 42.8 °F 40.1 °F 42.8 °F 100% 30.08 in 1.0 mi NW 4.6 mph - N/A   Overcast
8:10 AM 42.8 °F 40.1 °F 42.8 °F 100% 30.08 in 1.2 mi WNW 4.6 mph - N/A   Overcast
8:14 AM 42.8 °F 40.1 °F 42.8 °F 100% 30.08 in 1.5 mi WNW 4.6 mph - N/A   Overcast
8:17 AM 42.8 °F 40.1 °F 42.8 °F 100% 30.08 in 1.8 mi NW 4.6 mph - N/A   Overcast
8:20 AM 42.8 °F 39.3 °F 42.8 °F 100% 30.08 in 2.0 mi NW 5.8 mph - N/A   Overcast
8:24 AM 42.8 °F 39.3 °F 42.8 °F 100% 30.08 in 2.5 mi NW 5.8 mph - N/A   Overcast
8:30 AM 42.8 °F 40.1 °F 42.8 °F 100% 30.08 in 3.0 mi NNW 4.6 mph - N/A   Overcast
8:55 AM 44.2 °F 41.0 °F 44.2 °F 100% 30.08 in 5.0 mi NW 5.8 mph - N/A   Overcast
9:07 AM 44.6 °F 41.4 °F 44.6 °F 100% 30.09 in 10.0 mi NW 5.8 mph - N/A   Mostly Cloudy
10:27 AM 48.2 °F - 48.2 °F 100% 30.08 in 10.0 mi North 12.7 mph 21.9 mph N/A   Mostly Cloudy
10:55 AM 47.7 °F - 46.4 °F 95% 30.10 in 10.0 mi North 13.8 mph - N/A   Overcast
11:55 AM 50.4 °F - 45.1 °F 82% 30.09 in 10.0 mi North 10.4 mph - N/A   Scattered Clouds
12:55 PM 51.1 °F - 43.2 °F 74% 30.06 in 10.0 mi NNE 8.1 mph - N/A   Clear
1:32 PM 51.8 °F - 42.8 °F 71% 30.05 in 10.0 mi NNE 5.8 mph - N/A   Mostly Cloudy
1:42 PM 53.6 °F - 44.6 °F 72% 30.04 in 10.0 mi NE 9.2 mph - N/A   Mostly Cloudy
1:55 PM 53.6 °F - 44.6 °F 72% 30.05 in 10.0 mi NE 9.2 mph - N/A   Mostly Cloudy
2:27 PM 51.8 °F - 42.8 °F 71% 30.04 in 10.0 mi ENE 6.9 mph - N/A   Mostly Cloudy
2:39 PM 51.8 °F - 42.8 °F 71% 30.04 in 10.0 mi ENE 6.9 mph - N/A   Overcast
2:55 PM 50.0 °F - 42.8 °F 76% 30.06 in 10.0 mi NE 8.1 mph - N/A   Overcast
3:55 PM 48.9 °F - 41.5 °F 76% 30.05 in 10.0 mi East 3.5 mph - N/A   Overcast
3:57 PM 50.0 °F - 41.0 °F 71% 30.05 in 10.0 mi ENE 4.6 mph - N/A   Overcast
4:18 PM 50.0 °F - 41.0 °F 71% 30.05 in 10.0 mi ENE 3.5 mph - N/A   Overcast
4:55 PM 49.6 °F - 41.4 °F 73% 30.04 in 10.0 mi NE 4.6 mph - N/A   Partly Cloudy
5:55 PM 45.5 °F - 41.4 °F 85% 30.06 in 10.0 mi Calm Calm - N/A   Clear
6:55 PM 40.8 °F 37.8 °F 39.7 °F 96% 30.09 in 10.0 mi NE 4.6 mph - N/A   Clear
7:55 PM 40.8 °F - 40.3 °F 98% 30.10 in 10.0 mi Calm Calm - N/A   Clear
8:47 PM 39.2 °F - 39.2 °F 100% 30.12 in 9.0 mi Calm Calm - N/A   Clear
8:55 PM 39.0 °F - 38.8 °F 99% 30.12 in 9.0 mi Calm Calm - N/A   Clear
8:57 PM 39.2 °F - 39.2 °F 100% 30.12 in 9.0 mi Calm Calm - N/A   Clear
9:14 PM 37.4 °F - 37.4 °F 100% 30.12 in 9.0 mi Calm Calm - N/A   Clear
9:21 PM 39.2 °F - 37.4 °F 93% 30.12 in 9.0 mi Calm Calm - N/A   Clear
9:31 PM 39.2 °F - 39.2 °F 100% 30.12 in 8.0 mi Calm Calm - N/A   Clear
9:55 PM 38.5 °F - 38.3 °F 99% 30.12 in 8.0 mi Calm Calm - N/A   Partly Cloudy
10:55 PM 38.7 °F - 38.7 °F 100% 30.12 in 7.0 mi Calm Calm - N/A   Mostly Cloudy
11:09 PM 37.4 °F - 37.4 °F 100% 30.12 in 8.0 mi Calm Calm - N/A   Mostly Cloudy
11:22 PM 39.2 °F - 39.2 °F 100% 30.12 in 8.0 mi Calm Calm - N/A   Overcast
11:55 PM 38.3 °F - 38.3 °F 100% 30.12 in 8.0 mi Calm Calm - N/A   Mostly Cloudy
11:56 PM 39.2 °F - 39.2 °F 100% 30.12 in 8.0 mi Calm Calm - N/A   Partly Cloudy